Regional Weather Roundup
Issued by NWS Sterling, VA

Home | Current Version | Previous Version | Text Only | Print | Product List | Glossary On
Versions: 1 2 3 4 5 6 7 8 9 10 11 12 13 14 15 16 17 18 19 20 21 22 23 24 25 26 27
000
ASUS41 KLWX 251810
RWRLWX

REGIONAL WEATHER ROUNDUP
NATIONAL WEATHER SERVICE BALTIMORE MD/WASHINGTON DC
200 PM EDT MON JUL 25 2016

Note: "FAIR" indicates few or no clouds below 12,000 feet
with no significant weather and/or obstructions to visibility.
 TC=TEMPERATURE CELSIUS

 * =Non NWS site. Station does not report precipitation (e.g. rain,
    snow, etc.), thunder, or fog.

DCZ001-MDZ009-015-VAZ040>042-051-053>054-251900-
WASHINGTON METRO

CITY           SKY/WX    TMP DP  RH WIND       PRES   REMARKS
WASHINGTON NAT PTSUNNY   97  77  52 S14       29.90F HX 112
DULLES         PTSUNNY   99  69  37 VRB7      29.91F HX 105
ANDREWS AFB    SUNNY     96  70  42 SW9G17    29.91F HX 103
FT BELVOIR     FAIR      97  75  48 S9        29.91F HX 109
QUANTICO       FAIR      95  78  58 S13       29.92F HX 111
COLLEGE PARK*  FAIR      95  73  49 SW3       29.90F HX 105
LEESBURG*      FAIR      99  73  44 S8        29.93F HX 109
MANASSAS*      MOSUNNY   97  72  44 S8        29.92F HX 105
GAITHERSBURG*  MOSUNNY   97  73  46 S6        29.96F HX 107

$$

MDZ006>007-011-014-251900-
BALTIMORE METRO

CITY           SKY/WX    TMP DP  RH WIND       PRES   REMARKS
BWI AIRPORT    MOSUNNY   98  72  42 W7        29.90F HX 107
MD SCIENCE CTR   N/A    100  72  40 MISG      29.89F HX 109
MARTIN STATE   MOSUNNY   93  84  75 SE12      29.91F HX 121
ANNAPOLIS      SUNNY     96  78  56 CALM      29.90F HX 112
FORT MEADE*    SUNNY     95  73  49 SW5       29.93F HX 105

$$

MDZ012-015-019>023-251900-
MARYLAND EASTERN SHORE

CITY           SKY/WX    TMP DP  RH WIND       PRES   REMARKS
OCEAN CITY     SUNNY     98  73  44 W13       29.93F HX 108
SALISBURY      SUNNY     94  75  54 W14       29.93F HX 105
BAY BRIDGE AP* SUNNY     95  79  59 SW8       29.91F HX 112
CAMBRIDGE*     SUNNY     93  73  52 SW6       29.92F HX 102
EASTON*        SUNNY     95  82  66 SW8       29.96F HX 119

$$

MDZ017>025-251900-
SOUTHERN MARYLAND

CITY           SKY/WX    TMP DP  RH WIND       PRES   REMARKS
PATUXENT RIVER PTSUNNY  100  66  32 SW10      29.92F HX 104
ST INIGOES     SUNNY     98  72  42 SW9       29.92F HX 107
LEONARDTOWN*   SUNNY     97  66  36 SW13G18   29.94F HX 100

$$

MDZ003>005-251900-
NORTH CENTRAL MARYLAND

CITY           SKY/WX    TMP DP  RH WIND       PRES   REMARKS
FREDERICK*     MOSUNNY   97  73  46 SW6       29.93F HX 107
HAGERSTOWN APT SUNNY     96  72  45 S10G17    29.91F HX 104

$$

MDZ501>502-251900-
WESTERN MARYLAND

CITY           SKY/WX    TMP DP  RH WIND       PRES   REMARKS
OAKLAND*       MOSUNNY   81  68  65 W7        30.09F
CUMBERLAND*    SUNNY     97  64  34 SW10G17   29.96F HX  99

$$

VAZ025>031-251900-
SHENANDOAH VALLEY

CITY           SKY/WX    TMP DP  RH WIND       PRES   REMARKS
WINCHESTER*    PTSUNNY   93  72  49 W6        29.93F HX 100
FRONT ROYAL*   FAIR      95  72  46 S5        29.94F HX 103
LURAY*         FAIR      93  72  49 S6        29.97F HX 100
NEW MARKET*    FAIR     N/A N/A N/A S3        29.94F
STAUNTON*      FAIR      91  72  53 SE6       30.02F HX  98
WAYNESBORO*    FAIR      91  72  52 SW5       30.02F HX  98

$$

WVZ021-048>050-054>055-251900-
EASTERN WEST VIRGINIA PANHANDLE

CITY           SKY/WX    TMP DP  RH WIND       PRES   REMARKS
MARTINSBURG    FAIR      97  70  41 W5        29.90F HX 103
PETERSBURG*    FAIR      98  72  42 SW7       29.94F HX 107

$$

VAZ036>039-050-251900-
CENTRAL FOOTHILLS

CITY           SKY/WX    TMP DP  RH WIND       PRES   REMARKS
CHARLOTTESVILL FAIR      98  70  40 S7        29.96F HX 105
CULPEPER*      FAIR      96  76  52 SW7       29.93F HX 110
ORANGE*          N/A     97  68  38 SE6       29.97F HX 101
GORDONSVILLE*  FAIR      96  73  46 SW13      29.95F HX 105
WARRENTON*     FAIR      98  66  34 S10       29.93F HX 102

$$

VAZ055>057-251900-
NORTH AND CENTRAL PIEDMONT

CITY           SKY/WX    TMP DP  RH WIND       PRES   REMARKS
FREDERICKSBRG*   N/A     98  67  36 SW9G16    29.92F HX 103
STAFFORD*      FAIR      97  69  39 SW5       29.97F HX 103

$$

NCZ024-NYZ072-PAZ021-071-VAZ022-071-251900-
OTHER REGIONAL OBSERVATIONS

CITY           SKY/WX    TMP DP  RH WIND       PRES   REMARKS
NEW YORK CITY  SUNNY     93  71  48 S3        29.90F HX 100
PHILADELPHIA   PTSUNNY   94  75  54 SW9       29.89F HX 105
PITTSBURGH     PTSUNNY   92  69  47 W10G20    29.94F HX  97
ROANOKE        FAIR      88  69  53 N8        30.05F HX  92
RICHMOND       PTSUNNY   94  73  50 SW8       29.96F HX 103
RALEIGH        MOSUNNY   93  75  55 SW12      30.01F HX 104

$$

ANZ530>537-251900-
MARINE OBSERVATIONS

STATION/POSITION TIME  TEMP    WIND        PRES
                       AIR SEA DIR/SP/G
                 (UTC) (F)     (DEG/KT/KT) (MB)
THOMAS PT LIGHT  1800   87 84  170/ 11/ 12 1014.0F
BALT KEY BRIDGE  1748   94     230/  3/  6 1012.2F
COVE POINT       1748   94     280/  9/ 12 1013.8F
LEWISETTA        1748   94 88  270/ 12/ 14 1013.2F
SOLOMONS ISLAND  1736   94 84  240/ 11/ 19   N/A
PINEY POINT      1748          280/  7/  9   N/A

$$





USA.gov is the U.S. government's official web portal to all federal, state and local government web resources and services.